{"data":{"norad_id":59497,"epoch":"2026-09-21T11:30:01.833696Z","epoch_age_seconds":80782,"freshness":"FRESH","line1":"1 59497U 24071P   26264.47918789 -.00000123  00000+0  50587-5 0  9997","line2":"2 59497  43.0027 314.4984 0001459 256.0395 104.0295 15.27574624138145","mean_motion":15.27574624,"eccentricity":0.0001459,"inclination_deg":43.0027,"raan_deg":314.4984,"arg_perigee_deg":256.0395,"mean_anomaly_deg":104.0295,"bstar":5.0587e-6,"rev_number":13814,"period_min":94.267080467029,"perigee_km":482.0641443648,"apogee_km":484.06624316494,"semimajor_km":6861.2021937649,"source":"CELESTRAK","updated_at":"2026-09-22T09:00:48.958762Z"}}